Hourly Weather Roundup
Issued by NWS Central Illinois

Home | Current Version | Previous Version | Text Only | Print | Product List | Glossary On
Versions: 1 2 3 4 5 6 7 8 9 10 11 12 13 14 15 16 17 18 19 20 21 22 23 24 25 26 27 28 29 30 31 32 33 34 35 36 37 38 39 40 41 42 43 44 45 46 47 48 49 50
000
NZUS43 KILX 301110
HWRILX

AREA WEATHER ROUNDUP
NATIONAL WEATHER SERVICE, LINCOLN IL
500 AM CST FRI JAN 30 2015


CITY           SKY/WX    TMP DP  RH WIND       PRES   REMARKS
BLOOMINGTON    CLEAR     25  18  74 NW10      30.45R WCI  15
CHAMPAIGN      PTCLDY    27  20  75 NW16      30.43R WCI  15
DECATUR        CLEAR     28  19  69 NW13      30.46R WCI  17
FLORA          CLOUDY    32  24  71 N13       30.45R WCI  23
GALESBURG      CLEAR     22  17  83 NW8       30.50R WCI  12
JACKSONVILLE   CLEAR     27  19  72 NW8       30.50R WCI  19
LACON          CLEAR     23  17  75 NW5       30.48R WCI  17
LAWRENCEVILLE  MOCLDY    32  22  66 NW15      30.43R WCI  22
LITCHFIELD     CLOUDY    29  20  71 N18G24    30.48R WCI  16
$$


CITY           SKY/WX    TMP DP  RH WIND       PRES   REMARKS
LINCOLN        CLEAR     28  22  79 NW5       30.50R WCI  22
MACOMB         CLEAR     24  19  84 NW10      30.53R WCI  13
MATTOON        PTCLDY    28  21  75 N18       30.42R WCI  15
MT CARMEL AP   CLOUDY    34  23  64 NW12      30.42R WCI  25
OLNEY-NOBLE AP MOCLDY    32  23  69 CALM      30.44R
PARIS          MOCLDY    30  26  82 NW12      30.41R WCI  21
PEORIA         CLEAR     25  16  68 NW7       30.49R WCI  17
PONTIAC        CLEAR     25  21  85 NW8       30.46R WCI  16
RANTOUL        CLEAR     29  22  77 NW10G17   30.42R WCI  19
ROBINSON       CLOUDY    32  25  74 NW12G17   30.43R WCI  23
SPRINGFIELD    CLEAR     27  18  69 NW10      30.49R WCI  17
TAYLORVILLE    PTCLDY    28  21  74 NW12      30.48R WCI  18
$$

...REGIONAL REPORTS...


CITY           SKY/WX    TMP DP  RH WIND       PRES   REMARKS
CHICAGO O`HARE FAIR      22   8  55 N10G20    30.43R WCI  11
KANKAKEE       CLEAR     26  15  64 N9        30.43R WCI  17
MOLINE         CLEAR     21  12  68 NW9       30.51R WCI  11
MOUNT VERNON   CLOUDY    34  19  55 NW6       30.46R WCI  29
PITTSFIELD     CLOUDY    28  20  72 N9        30.52R WCI  19
QUINCY         CLEAR     23  16  74 N8        30.51R WCI  14
ROCKFORD       CLEAR     20  10  65 N12       30.49R WCI   8
$$


CITY           SKY/WX    TMP DP  RH WIND       PRES   REMARKS
BURLINGTON     CLEAR     23  17  78 N9        30.51R WCI  13
CEDAR RAPIDS   CLEAR     17  12  80 N7        30.51R WCI   8
DES MOINES     CLEAR     19  13  77 N7        30.55R WCI  10
KIRKSVILLE     CLEAR     21  18  88 N9        30.52S WCI  11
OTTUMWA        CLEAR     18  14  84 NW7       30.53S WCI   9
ST LOUIS       MOCLDY    30  19  63 N13       30.50R WCI  20
$$


CITY           SKY/WX    TMP DP  RH WIND       PRES   REMARKS
TERRE HAUTE    MOCLDY    31  24  75 NW10      30.39R WCI  22
EVANSVILLE     CLOUDY    35  21  56 NW14G21   30.43R WCI  26
INDIANAPOLIS   FLURRIES  27  23  85 N18       30.35R WCI  14
LAFAYETTE      CLOUDY    28  17  63 N21       30.40R WCI  15
MADISON        CLEAR     15   7  70 NW5       30.47R WCI   8
MILWAUKEE      PTCLDY    20   9  62 NW12      30.44R WCI   8
$$




USA.gov is the U.S. government's official web portal to all federal, state and local government web resources and services.